User: anonymous   Login
Location: Maiden_LMO
(35.5760°N, 81.2120°W)
Time: 11:24:34
(UTC-04:00)
Language:

ADEOS II - Orbit

View from above orbital plane
View from above orbital plane
View from above satellite
View from above satellite

Ground track
Ground track

The orbit data is extracted from the following two-line orbital elements,

1 27597U 02056A   15212.51676479  .00000096  00000-0  55971-4 0  9995
2 27597 098.2893 203.7001 0001427 127.8317 341.1011 14.27111535657477
Epoch (UTC): 31 July 2015 12:24:08
Eccentricity: 0.0001427
inclination: 98.2893°
perigee height: 800 km
apogee height: 802 km
right ascension of ascending node: 203.7001°
argument of perigee: 127.8317°
revolutions per day: 14.27111535
mean anomaly at epoch: 341.1011°
orbit number at epoch: 65747

The dashed part of the orbit path shows where the satellite is in the earth's shadow,  

DLR